PUA1502 SABE-SUMU

Flight info

Callsign PUA1502
Flight time 0h 28m
Altitude 17000
Route DORVO8 DORVO A305 TOKAM
Aircraft A320/M-SDE3FGHIRWY/LB1

Departure

Time 2026-04-26 23:09
Airport Aeroparque Jorge Newbery (SABE)

Arrival

Time 2026-04-26 23:38
Airport Carrasco General Cesáreo L. Berisso International Airport (SUMU)
Time Latitude Longitude Altitude Speed Heading
2026-04-26 22:26 -34.55795 -58.41247 26 ft 0 kts 36°
2026-04-26 22:33 -34.55796 -58.41247 25 ft 0 kts 36°
2026-04-26 22:36 -34.55796 -58.41248 25 ft 0 kts 36°
2026-04-26 22:44 -34.55797 -58.41249 25 ft 2 kts 36°
2026-04-26 22:44 -34.55820 -58.41266 29 ft 4 kts 20°
2026-04-26 22:44 -34.55845 -58.41272 27 ft 4 kts 345°
2026-04-26 22:45 -34.55860 -58.41260 29 ft 3 kts 253°
2026-04-26 22:45 -34.55859 -58.41258 29 ft 3 kts 249°
2026-04-26 22:45 -34.55859 -58.41257 29 ft 0 kts 249°
2026-04-26 22:50 -34.55862 -58.41266 27 ft 3 kts 249°
2026-04-26 22:50 -34.55867 -58.41279 28 ft 2 kts 239°
2026-04-26 22:50 -34.55872 -58.41283 28 ft 0 kts 217°
2026-04-26 22:51 -34.55876 -58.41286 28 ft 4 kts 214°
2026-04-26 22:52 -34.55931 -58.41287 27 ft 13 kts 146°
2026-04-26 22:52 -34.55994 -58.41186 28 ft 19 kts 127°
2026-04-26 22:52 -34.56094 -58.41031 28 ft 24 kts 127°
2026-04-26 22:52 -34.56159 -58.40899 27 ft 15 kts 114°
2026-04-26 22:53 -34.56198 -58.40782 29 ft 16 kts 124°
2026-04-26 22:53 -34.56254 -58.40683 28 ft 10 kts 124°
2026-04-26 22:53 -34.56265 -58.40664 26 ft 0 kts 123°
2026-04-26 22:55 -34.56270 -58.40655 29 ft 3 kts 123°
2026-04-26 22:55 -34.56286 -58.40626 27 ft 5 kts 123°
2026-04-26 22:55 -34.56313 -58.40583 27 ft 3 kts 132°
2026-04-26 23:02 -34.56314 -58.40581 25 ft 3 kts 132°
2026-04-26 23:03 -34.56347 -58.40542 28 ft 8 kts 138°
2026-04-26 23:03 -34.56392 -58.40496 29 ft 7 kts 137°
2026-04-26 23:03 -34.56410 -58.40474 26 ft 0 kts 135°
2026-04-26 23:07 -34.56414 -58.40469 27 ft 3 kts 135°
2026-04-26 23:07 -34.56456 -58.40422 25 ft 13 kts 138°
2026-04-26 23:08 -34.56540 -58.40401 25 ft 15 kts 214°
2026-04-26 23:08 -34.56523 -58.40507 28 ft 11 kts 304°
2026-04-26 23:08 -34.56514 -58.40523 17 ft 0 kts 305°
2026-04-26 23:09 -34.56473 -58.40597 29 ft 40 kts 304°
2026-04-26 23:09 -34.56178 -58.41126 27 ft 105 kts 304°
2026-04-26 23:09 -34.55688 -58.42020 50 ft 149 kts 303°
2026-04-26 23:09 -34.55116 -58.43057 716 ft 146 kts 297°
2026-04-26 23:10 -34.54467 -58.44013 1344 ft 153 kts 318°
2026-04-26 23:10 -34.53446 -58.44570 1739 ft 172 kts 348°
2026-04-26 23:10 -34.52207 -58.44396 2161 ft 190 kts 22°
2026-04-26 23:10 -34.51047 -58.43548 2658 ft 200 kts 34°
2026-04-26 23:11 -34.50146 -58.42234 3144 ft 210 kts 68°
2026-04-26 23:11 -34.49929 -58.40471 3620 ft 218 kts 101°
2026-04-26 23:11 -34.50325 -58.38635 4053 ft 235 kts 109°
2026-04-26 23:11 -34.50807 -58.36634 4508 ft 258 kts 109°
2026-04-26 23:12 -34.51314 -58.34501 4997 ft 267 kts 109°
2026-04-26 23:12 -34.51827 -58.32316 5556 ft 271 kts 108°
2026-04-26 23:12 -34.52339 -58.30105 6120 ft 274 kts 108°
2026-04-26 23:12 -34.52855 -58.27862 6690 ft 277 kts 108°
2026-04-26 23:13 -34.53375 -58.25600 7252 ft 280 kts 108°
2026-04-26 23:13 -34.53904 -58.23310 7821 ft 283 kts 108°
2026-04-26 23:13 -34.54465 -58.21012 8414 ft 286 kts 109°
2026-04-26 23:13 -34.55048 -58.18699 9007 ft 288 kts 109°
2026-04-26 23:14 -34.55641 -58.16359 9614 ft 293 kts 109°
2026-04-26 23:14 -34.56252 -58.13944 10195 ft 306 kts 109°
2026-04-26 23:14 -34.56886 -58.11433 10762 ft 317 kts 109°
2026-04-26 23:14 -34.57542 -58.08825 11336 ft 328 kts 109°
2026-04-26 23:15 -34.58216 -58.06138 11890 ft 338 kts 108°
2026-04-26 23:15 -34.58908 -58.03372 12485 ft 347 kts 108°
2026-04-26 23:15 -34.59606 -58.00567 13086 ft 356 kts 108°
2026-04-26 23:15 -34.60326 -57.97664 13704 ft 363 kts 108°
2026-04-26 23:16 -34.61060 -57.94706 14259 ft 370 kts 108°
2026-04-26 23:16 -34.61807 -57.91691 14815 ft 376 kts 108°
2026-04-26 23:16 -34.62565 -57.88626 15403 ft 381 kts 108°
2026-04-26 23:16 -34.63328 -57.85534 16037 ft 383 kts 108°
2026-04-26 23:17 -34.64092 -57.82430 16670 ft 387 kts 108°
2026-04-26 23:17 -34.64882 -57.79233 16876 ft 402 kts 108°
2026-04-26 23:17 -34.65699 -57.75918 16936 ft 419 kts 108°
2026-04-26 23:17 -34.66547 -57.72483 16933 ft 427 kts 108°
2026-04-26 23:18 -34.67397 -57.69020 16934 ft 429 kts 108°
2026-04-26 23:18 -34.68246 -57.65546 16930 ft 429 kts 108°
2026-04-26 23:18 -34.69090 -57.62078 16936 ft 428 kts 108°
2026-04-26 23:18 -34.69935 -57.58610 16935 ft 428 kts 108°
2026-04-26 23:19 -34.70779 -57.55145 16933 ft 427 kts 108°
2026-04-26 23:19 -34.71545 -57.51651 16938 ft 428 kts 102°
2026-04-26 23:19 -34.71924 -57.48089 16936 ft 422 kts 96°
2026-04-26 23:19 -34.72216 -57.44550 16935 ft 419 kts 96°
2026-04-26 23:20 -34.72509 -57.41028 16937 ft 419 kts 96°
2026-04-26 23:20 -34.72806 -57.37508 16933 ft 418 kts 97°
2026-04-26 23:20 -34.73100 -57.34040 16934 ft 418 kts 97°
2026-04-26 23:20 -34.73397 -57.30524 16934 ft 418 kts 97°
2026-04-26 23:21 -34.73690 -57.27014 16930 ft 418 kts 97°
2026-04-26 23:21 -34.73981 -57.23502 16926 ft 417 kts 97°
2026-04-26 23:21 -34.74268 -57.19998 16932 ft 417 kts 97°
2026-04-26 23:21 -34.74553 -57.16485 16928 ft 417 kts 96°
2026-04-26 23:22 -34.74839 -57.12980 16927 ft 417 kts 97°
2026-04-26 23:22 -34.75125 -57.09470 16926 ft 417 kts 96°
2026-04-26 23:22 -34.75411 -57.05956 16934 ft 418 kts 96°
2026-04-26 23:22 -34.75696 -57.02440 16934 ft 418 kts 96°
2026-04-26 23:23 -34.75976 -56.98924 16931 ft 418 kts 96°
2026-04-26 23:23 -34.76256 -56.95402 16931 ft 418 kts 96°
2026-04-26 23:23 -34.76538 -56.91884 16938 ft 418 kts 96°
2026-04-26 23:23 -34.76821 -56.88360 16939 ft 418 kts 96°
2026-04-26 23:24 -34.77099 -56.84841 16932 ft 418 kts 96°
2026-04-26 23:24 -34.77374 -56.81370 16930 ft 418 kts 96°
2026-04-26 23:24 -34.77654 -56.77812 16938 ft 418 kts 96°
2026-04-26 23:24 -34.77927 -56.74337 16736 ft 418 kts 96°
2026-04-26 23:25 -34.77923 -56.70836 16419 ft 408 kts 84°
2026-04-26 23:25 -34.77455 -56.67505 16282 ft 392 kts 78°
2026-04-26 23:25 -34.76927 -56.64310 16149 ft 379 kts 78°
2026-04-26 23:25 -34.76418 -56.61198 15834 ft 372 kts 78°
2026-04-26 23:26 -34.75913 -56.58131 15499 ft 367 kts 78°
2026-04-26 23:26 -34.75412 -56.55111 15176 ft 362 kts 78°
2026-04-26 23:26 -34.74917 -56.52127 14856 ft 358 kts 79°
2026-04-26 23:26 -34.74428 -56.49177 14537 ft 354 kts 79°
2026-04-26 23:27 -34.73940 -56.46251 14183 ft 352 kts 79°
2026-04-26 23:27 -34.73452 -56.43340 13796 ft 351 kts 79°
2026-04-26 23:27 -34.72963 -56.40433 13394 ft 350 kts 79°
2026-04-26 23:27 -34.72641 -56.38518 13108 ft 350 kts 79°
2026-04-26 23:28 -34.71990 -56.34653 12540 ft 348 kts 79°
2026-04-26 23:28 -34.71505 -56.31775 12125 ft 347 kts 79°
2026-04-26 23:28 -34.71026 -56.28916 11690 ft 342 kts 79°
2026-04-26 23:28 -34.70555 -56.26112 11169 ft 335 kts 79°
2026-04-26 23:29 -34.70090 -56.23368 10641 ft 328 kts 79°
2026-04-26 23:29 -34.69634 -56.20679 10126 ft 322 kts 79°
2026-04-26 23:29 -34.69191 -56.18066 9613 ft 317 kts 78°
2026-04-26 23:29 -34.68749 -56.15466 9062 ft 312 kts 79°
2026-04-26 23:30 -34.68313 -56.12903 8511 ft 308 kts 79°
2026-04-26 23:30 -34.67884 -56.10374 7971 ft 303 kts 79°
2026-04-26 23:30 -34.67461 -56.07882 7449 ft 300 kts 79°
2026-04-26 23:30 -34.67040 -56.05421 6979 ft 294 kts 79°
2026-04-26 23:31 -34.66626 -56.03006 6507 ft 290 kts 79°
2026-04-26 23:31 -34.66220 -56.00630 6037 ft 285 kts 79°
2026-04-26 23:31 -34.65821 -55.98287 5553 ft 282 kts 79°
2026-04-26 23:31 -34.65458 -55.95965 5068 ft 278 kts 86°
2026-04-26 23:32 -34.65577 -55.93664 4648 ft 269 kts 107°
2026-04-26 23:32 -34.66256 -55.91624 4312 ft 254 kts 126°
2026-04-26 23:32 -34.67351 -55.90013 3982 ft 243 kts 144°
2026-04-26 23:32 -34.68682 -55.88779 3644 ft 241 kts 149°
2026-04-26 23:33 -34.70030 -55.87574 3323 ft 241 kts 149°
2026-04-26 23:33 -34.71412 -55.86436 3059 ft 234 kts 163°
2026-04-26 23:33 -34.72930 -55.86245 3034 ft 217 kts 201°
2026-04-26 23:33 -34.74141 -55.87183 2882 ft 202 kts 234°
2026-04-26 23:34 -34.74949 -55.88488 2660 ft 191 kts 237°
2026-04-26 23:34 -34.75713 -55.89761 2413 ft 182 kts 237°
2026-04-26 23:34 -34.76457 -55.90985 2178 ft 174 kts 237°
2026-04-26 23:34 -34.77150 -55.92119 1970 ft 163 kts 237°
2026-04-26 23:35 -34.77803 -55.93187 1741 ft 150 kts 237°
2026-04-26 23:35 -34.78397 -55.94159 1568 ft 134 kts 238°
2026-04-26 23:35 -34.78936 -55.95040 1384 ft 127 kts 238°
2026-04-26 23:35 -34.79454 -55.95890 1207 ft 125 kts 237°
2026-04-26 23:36 -34.79971 -55.96736 1031 ft 124 kts 237°
2026-04-26 23:36 -34.80491 -55.97573 804 ft 124 kts 238°
2026-04-26 23:36 -34.80999 -55.98410 691 ft 123 kts 240°
2026-04-26 23:36 -34.81496 -55.99242 537 ft 119 kts 236°
2026-04-26 23:37 -34.81995 -56.00048 410 ft 118 kts 238°
2026-04-26 23:37 -34.82486 -56.00854 224 ft 119 kts 236°
2026-04-26 23:37 -34.82977 -56.01652 92 ft 110 kts 239°
2026-04-26 23:37 -34.83340 -56.02267 82 ft 55 kts 233°
2026-04-26 23:38 -34.83479 -56.02503 85 ft 29 kts 237°
2026-04-26 23:38 -34.83597 -56.02690 85 ft 26 kts 234°
2026-04-26 23:38 -34.83703 -56.02843 84 ft 22 kts 208°
2026-04-26 23:38 -34.83853 -56.02845 83 ft 21 kts 177°
2026-04-26 23:39 -34.83975 -56.02759 84 ft 20 kts 102°
2026-04-26 23:39 -34.83941 -56.02596 83 ft 20 kts 86°
2026-04-26 23:39 -34.83946 -56.02410 82 ft 23 kts 91°
2026-04-26 23:39 -34.83907 -56.02251 85 ft 20 kts 14°
2026-04-26 23:40 -34.83774 -56.02218 82 ft 21 kts 38°
2026-04-26 23:40 -34.83682 -56.02074 84 ft 22 kts 52°
2026-04-26 23:40 -34.83597 -56.01938 85 ft 17 kts 52°
2026-04-26 23:40 -34.83576 -56.01833 84 ft 11 kts 154°
2026-04-26 23:41 -34.83618 -56.01803 86 ft 4 kts 142°
2026-04-26 23:41 -34.83624 -56.01798 87 ft 0 kts 142°
2026-04-26 23:48 -34.83623 -56.01798 87 ft 0 kts 142°
2026-04-26 23:56 -34.83623 -56.01799 82 ft 0 kts 142°
2026-04-27 00:05 -34.83622 -56.01799 82 ft 0 kts 142°